Year,Month,Day,Hour,Minute,Value (Times are PST for temperature in C)
2015,07,01,00,00,17.50
2015,07,01,00,01,17.50
2015,07,01,00,02,17.50
2015,07,01,00,03,17.50
2015,07,01,00,04,17.40
2015,07,01,00,05,17.40
2015,07,01,00,06,17.40
2015,07,01,00,07,17.40
2015,07,01,00,08,17.30
2015,07,01,00,09,17.30
2015,07,01,00,10,17.30
2015,07,01,00,11,17.30
2015,07,01,00,12,17.30
2015,07,01,00,13,17.30
2015,07,01,00,14,17.30
2015,07,01,00,15,17.30
2015,07,01,00,16,17.30
2015,07,01,00,17,17.20
2015,07,01,00,18,17.20
2015,07,01,00,19,17.20
2015,07,01,00,20,17.20
2015,07,01,00,21,17.20
2015,07,01,00,22,17.20
2015,07,01,00,23,17.20
2015,07,01,00,24,17.20
2015,07,01,00,25,17.20
2015,07,01,00,26,17.20
2015,07,01,00,27,17.20
2015,07,01,00,28,17.20
2015,07,01,00,29,17.20
2015,07,01,00,30,17.20
2015,07,01,00,31,17.20
2015,07,01,00,32,17.10
2015,07,01,00,33,17.10
2015,07,01,00,34,17.10
2015,07,01,00,35,17.10
2015,07,01,00,36,17.10
2015,07,01,00,37,17.10
2015,07,01,00,38,17.10
2015,07,01,00,39,17.10
2015,07,01,00,40,17.10
2015,07,01,00,41,17.10
2015,07,01,00,42,17.10
2015,07,01,00,43,17.10
2015,07,01,00,44,17.10
2015,07,01,00,45,17.10
2015,07,01,00,46,17.10
2015,07,01,00,47,17.10
2015,07,01,00,48,17.10
2015,07,01,00,49,17.10
2015,07,01,00,50,17.10
2015,07,01,00,51,17.10
2015,07,01,00,52,17.10
2015,07,01,00,53,17.10
2015,07,01,00,54,17.10
2015,07,01,00,55,17.00
2015,07,01,00,56,17.00
2015,07,01,00,57,17.00
2015,07,01,00,58,17.00
2015,07,01,00,59,16.90
2015,07,01,01,00,16.90
2015,07,01,01,01,16.90
2015,07,01,01,02,16.90
2015,07,01,01,03,16.80
2015,07,01,01,04,16.80
2015,07,01,01,05,16.80
2015,07,01,01,06,16.80
2015,07,01,01,07,16.80
2015,07,01,01,08,16.80
2015,07,01,01,09,16.80
2015,07,01,01,10,16.80
2015,07,01,01,11,16.80
2015,07,01,01,12,16.80
2015,07,01,01,13,16.80
2015,07,01,01,14,16.80
2015,07,01,01,15,16.80
2015,07,01,01,16,16.80
2015,07,01,01,17,16.80
2015,07,01,01,18,16.80
2015,07,01,01,19,16.80
2015,07,01,01,20,16.80
2015,07,01,01,21,16.70
2015,07,01,01,22,16.70
2015,07,01,01,23,16.70
2015,07,01,01,24,16.70
2015,07,01,01,25,16.70
2015,07,01,01,26,16.60
2015,07,01,01,27,16.60
2015,07,01,01,28,16.60
2015,07,01,01,29,16.60
2015,07,01,01,30,16.60
2015,07,01,01,31,16.60
2015,07,01,01,32,16.60
2015,07,01,01,33,16.70
2015,07,01,01,34,16.70
2015,07,01,01,35,16.70
2015,07,01,01,36,16.70
2015,07,01,01,37,16.70
2015,07,01,01,38,16.70
2015,07,01,01,39,16.70
2015,07,01,01,40,16.70
2015,07,01,01,41,16.70
2015,07,01,01,42,16.70
2015,07,01,01,43,16.70
2015,07,01,01,44,16.70
2015,07,01,01,45,16.60
2015,07,01,01,46,16.60
2015,07,01,01,47,16.60
2015,07,01,01,48,16.60
2015,07,01,01,49,16.60
2015,07,01,01,50,16.50
2015,07,01,01,51,16.50
2015,07,01,01,52,16.50
2015,07,01,01,53,16.40
2015,07,01,01,54,16.40
2015,07,01,01,55,16.30
2015,07,01,01,56,16.30
2015,07,01,01,57,16.30
2015,07,01,01,58,16.30
2015,07,01,01,59,16.30
2015,07,01,02,00,16.30
2015,07,01,02,01,16.30
2015,07,01,02,02,16.30
2015,07,01,02,03,16.30
2015,07,01,02,04,16.30
2015,07,01,02,05,16.30
2015,07,01,02,06,16.30
2015,07,01,02,07,16.30
2015,07,01,02,08,16.30
2015,07,01,02,09,16.30
2015,07,01,02,10,16.30
2015,07,01,02,11,16.30
2015,07,01,02,12,16.20
2015,07,01,02,13,16.20
2015,07,01,02,14,16.20
2015,07,01,02,15,16.10
2015,07,01,02,16,16.10
2015,07,01,02,17,16.10
2015,07,01,02,18,16.10
2015,07,01,02,19,16.10
2015,07,01,02,20,16.10
2015,07,01,02,21,16.10
2015,07,01,02,22,16.10
2015,07,01,02,23,16.10
2015,07,01,02,24,16.10
2015,07,01,02,25,16.10
2015,07,01,02,26,16.10
2015,07,01,02,27,16.10
2015,07,01,02,28,16.00
2015,07,01,02,29,16.00
2015,07,01,02,30,16.00
2015,07,01,02,31,16.00
2015,07,01,02,32,16.00
2015,07,01,02,33,16.00
2015,07,01,02,34,16.00
2015,07,01,02,35,16.00
2015,07,01,02,36,16.00
2015,07,01,02,37,16.00
2015,07,01,02,38,15.90
2015,07,01,02,39,15.90
2015,07,01,02,40,15.90
2015,07,01,02,41,15.90
2015,07,01,02,42,15.90
2015,07,01,02,43,15.80
2015,07,01,02,44,15.80
2015,07,01,02,45,15.80
2015,07,01,02,46,15.80
2015,07,01,02,47,15.80
2015,07,01,02,48,15.70
2015,07,01,02,49,15.70
2015,07,01,02,50,15.70
2015,07,01,02,51,15.70
2015,07,01,02,52,15.70
2015,07,01,02,53,15.60
2015,07,01,02,54,15.60
2015,07,01,02,55,15.60
2015,07,01,02,56,15.60
2015,07,01,02,57,15.60
2015,07,01,02,58,15.60
2015,07,01,02,59,15.60
2015,07,01,03,00,15.60
2015,07,01,03,01,15.60
2015,07,01,03,02,15.60
2015,07,01,03,03,15.60
2015,07,01,03,04,15.60
2015,07,01,03,05,15.60
2015,07,01,03,06,15.60
2015,07,01,03,07,15.60
2015,07,01,03,08,15.60
2015,07,01,03,09,15.50
2015,07,01,03,10,15.50
2015,07,01,03,11,15.50
2015,07,01,03,12,15.50
2015,07,01,03,13,15.50
2015,07,01,03,14,15.50
2015,07,01,03,15,15.40
2015,07,01,03,16,15.40
2015,07,01,03,17,15.40
2015,07,01,03,18,15.40
2015,07,01,03,19,15.40
2015,07,01,03,20,15.50
2015,07,01,03,21,15.60
2015,07,01,03,22,15.60
2015,07,01,03,23,15.60
2015,07,01,03,24,15.60
2015,07,01,03,25,15.60
2015,07,01,03,26,15.60
2015,07,01,03,27,15.60
2015,07,01,03,28,15.60
2015,07,01,03,29,15.60
2015,07,01,03,30,15.60
2015,07,01,03,31,15.60
2015,07,01,03,32,15.60
2015,07,01,03,33,15.60
2015,07,01,03,34,15.50
2015,07,01,03,35,15.50
2015,07,01,03,36,15.50
2015,07,01,03,37,15.50
2015,07,01,03,38,15.40
2015,07,01,03,39,15.40
2015,07,01,03,40,15.40
2015,07,01,03,41,15.40
2015,07,01,03,42,15.30
2015,07,01,03,43,15.30
2015,07,01,03,44,15.30
2015,07,01,03,45,15.30
2015,07,01,03,46,15.30
2015,07,01,03,47,15.20
2015,07,01,03,48,15.20
2015,07,01,03,49,15.20
2015,07,01,03,50,15.30
2015,07,01,03,51,15.30
2015,07,01,03,52,15.30
2015,07,01,03,53,15.30
2015,07,01,03,54,15.30
2015,07,01,03,55,15.30
2015,07,01,03,56,15.30
2015,07,01,03,57,15.30
2015,07,01,03,58,15.30
2015,07,01,03,59,15.30
2015,07,01,04,00,15.30
2015,07,01,04,01,15.30
2015,07,01,04,02,15.20
2015,07,01,04,03,15.20
2015,07,01,04,04,15.20
2015,07,01,04,05,15.20
2015,07,01,04,06,15.10
2015,07,01,04,07,15.10
2015,07,01,04,08,15.10
2015,07,01,04,09,15.00
2015,07,01,04,10,15.00
2015,07,01,04,11,15.00
2015,07,01,04,12,15.00
2015,07,01,04,13,15.00
2015,07,01,04,14,15.00
2015,07,01,04,15,15.00
2015,07,01,04,16,15.00
2015,07,01,04,17,15.00
2015,07,01,04,18,15.00
2015,07,01,04,19,15.00
2015,07,01,04,20,15.00
2015,07,01,04,21,15.00
2015,07,01,04,22,15.00
2015,07,01,04,23,15.00
2015,07,01,04,24,15.00
2015,07,01,04,25,15.00
2015,07,01,04,26,15.00
2015,07,01,04,27,15.00
2015,07,01,04,28,15.00
2015,07,01,04,29,15.00
2015,07,01,04,30,15.00
2015,07,01,04,31,15.00
2015,07,01,04,32,15.00
2015,07,01,04,33,14.90
2015,07,01,04,34,14.90
2015,07,01,04,35,14.90
2015,07,01,04,36,14.80
2015,07,01,04,37,14.80
2015,07,01,04,38,14.80
2015,07,01,04,39,14.80
2015,07,01,04,40,14.80
2015,07,01,04,41,14.70
2015,07,01,04,42,14.70
2015,07,01,04,43,14.70
2015,07,01,04,44,14.80
2015,07,01,04,45,14.80
2015,07,01,04,46,14.70
2015,07,01,04,47,14.80
2015,07,01,04,48,14.80
2015,07,01,04,49,14.80
2015,07,01,04,50,14.80
2015,07,01,04,51,14.80
2015,07,01,04,52,14.80
2015,07,01,04,53,14.80
2015,07,01,04,54,14.80
2015,07,01,04,55,14.80
2015,07,01,04,56,14.80
2015,07,01,04,57,14.80
2015,07,01,04,58,14.80
2015,07,01,04,59,14.80
2015,07,01,05,00,14.80
2015,07,01,05,01,14.80
2015,07,01,05,02,14.80
2015,07,01,05,03,14.80
2015,07,01,05,04,14.80
2015,07,01,05,05,14.90
2015,07,01,05,06,14.90
2015,07,01,05,07,14.90
2015,07,01,05,08,14.90
2015,07,01,05,09,14.90
2015,07,01,05,10,14.90
2015,07,01,05,11,14.90
2015,07,01,05,12,14.90
2015,07,01,05,13,14.90
2015,07,01,05,14,14.90
2015,07,01,05,15,14.90
2015,07,01,05,16,14.90
2015,07,01,05,17,14.90
2015,07,01,05,18,14.90
2015,07,01,05,19,14.80
2015,07,01,05,20,14.80
2015,07,01,05,21,14.80
2015,07,01,05,22,14.80
2015,07,01,05,23,14.80
2015,07,01,05,24,14.80
2015,07,01,05,25,14.80
2015,07,01,05,26,14.80
2015,07,01,05,27,14.80
2015,07,01,05,28,14.80
2015,07,01,05,29,14.70
2015,07,01,05,30,14.70
2015,07,01,05,31,14.70
2015,07,01,05,32,14.70
2015,07,01,05,33,14.70
2015,07,01,05,34,14.70
2015,07,01,05,35,14.70
2015,07,01,05,36,14.70
2015,07,01,05,37,14.70
2015,07,01,05,38,14.70
2015,07,01,05,39,14.70
2015,07,01,05,40,14.70
2015,07,01,05,41,14.80
2015,07,01,05,42,14.80
2015,07,01,05,43,14.80
2015,07,01,05,44,14.70
2015,07,01,05,45,14.80
2015,07,01,05,46,14.70
2015,07,01,05,47,14.80
2015,07,01,05,48,14.80
2015,07,01,05,49,14.80
2015,07,01,05,50,14.80
2015,07,01,05,51,14.80
2015,07,01,05,52,14.80
2015,07,01,05,53,14.80
2015,07,01,05,54,14.80
2015,07,01,05,55,14.80
2015,07,01,05,56,14.80
2015,07,01,05,57,14.90
2015,07,01,05,58,14.90
2015,07,01,05,59,14.90
2015,07,01,06,00,14.90
2015,07,01,06,01,14.90
2015,07,01,06,02,15.00
2015,07,01,06,03,15.00
2015,07,01,06,04,15.00
2015,07,01,06,05,15.00
2015,07,01,06,06,15.00
2015,07,01,06,07,15.10
2015,07,01,06,08,15.20
2015,07,01,06,09,15.20
2015,07,01,06,10,15.20
2015,07,01,06,11,15.20
2015,07,01,06,12,15.10
2015,07,01,06,13,15.10
2015,07,01,06,14,15.10
2015,07,01,06,15,15.20
2015,07,01,06,16,15.20
2015,07,01,06,17,15.20
2015,07,01,06,18,15.20
2015,07,01,06,19,15.20
2015,07,01,06,20,15.20
2015,07,01,06,21,15.20
2015,07,01,06,22,15.30
2015,07,01,06,23,15.30
2015,07,01,06,24,15.30
2015,07,01,06,25,15.40
2015,07,01,06,26,15.50
2015,07,01,06,27,15.50
2015,07,01,06,28,15.60
2015,07,01,06,29,15.60
2015,07,01,06,30,15.60
2015,07,01,06,31,15.70
2015,07,01,06,32,15.80
2015,07,01,06,33,15.90
2015,07,01,06,34,16.10
2015,07,01,06,35,16.20
2015,07,01,06,36,16.30
2015,07,01,06,37,16.40
2015,07,01,06,38,16.40
2015,07,01,06,39,16.50
2015,07,01,06,40,16.60
2015,07,01,06,41,16.70
2015,07,01,06,42,16.70
2015,07,01,06,43,16.80
2015,07,01,06,44,16.90
2015,07,01,06,45,17.00
2015,07,01,06,46,17.10
2015,07,01,06,47,17.20
2015,07,01,06,48,17.30
2015,07,01,06,49,17.40
2015,07,01,06,50,17.50
2015,07,01,06,51,17.60
2015,07,01,06,52,17.60
2015,07,01,06,53,17.70
2015,07,01,06,54,17.80
2015,07,01,06,55,17.90
2015,07,01,06,56,17.90
2015,07,01,06,57,18.00
2015,07,01,06,58,18.10
2015,07,01,06,59,18.20
2015,07,01,07,00,18.30
2015,07,01,07,01,18.30
2015,07,01,07,02,18.40
2015,07,01,07,03,18.50
2015,07,01,07,04,18.60
2015,07,01,07,05,18.60
2015,07,01,07,06,18.70
2015,07,01,07,07,18.80
2015,07,01,07,08,18.80
2015,07,01,07,09,18.80
2015,07,01,07,10,18.90
2015,07,01,07,11,18.90
2015,07,01,07,12,18.90
2015,07,01,07,13,18.90
2015,07,01,07,14,18.90
2015,07,01,07,15,19.00
2015,07,01,07,16,19.10
2015,07,01,07,17,19.20
2015,07,01,07,18,19.30
2015,07,01,07,19,19.30
2015,07,01,07,20,19.40
2015,07,01,07,21,19.50
2015,07,01,07,22,19.60
2015,07,01,07,23,19.70
2015,07,01,07,24,19.80
2015,07,01,07,25,19.90
2015,07,01,07,26,20.00
2015,07,01,07,27,20.00
2015,07,01,07,28,20.00
2015,07,01,07,29,20.10
2015,07,01,07,30,20.10
2015,07,01,07,31,20.20
2015,07,01,07,32,20.30
2015,07,01,07,33,20.40
2015,07,01,07,34,20.50
2015,07,01,07,35,20.60
2015,07,01,07,36,20.70
2015,07,01,07,37,20.80
2015,07,01,07,38,20.90
2015,07,01,07,39,21.00
2015,07,01,07,40,21.10
2015,07,01,07,41,21.20
2015,07,01,07,42,21.20
2015,07,01,07,43,21.30
2015,07,01,07,44,21.50
2015,07,01,07,45,21.60
2015,07,01,07,46,21.70
2015,07,01,07,47,21.70
2015,07,01,07,48,21.70
2015,07,01,07,49,21.80
2015,07,01,07,50,21.80
2015,07,01,07,51,21.80
2015,07,01,07,52,21.80
2015,07,01,07,53,21.80
2015,07,01,07,54,21.80
2015,07,01,07,55,21.80
2015,07,01,07,56,21.80
2015,07,01,07,57,21.90
2015,07,01,07,58,21.90
2015,07,01,07,59,21.90
2015,07,01,08,00,22.00
2015,07,01,08,01,22.10
2015,07,01,08,02,22.10
2015,07,01,08,03,22.10
2015,07,01,08,04,22.10
2015,07,01,08,05,22.10
2015,07,01,08,06,22.10
2015,07,01,08,07,22.10
2015,07,01,08,08,22.10
2015,07,01,08,09,22.00
2015,07,01,08,10,22.00
2015,07,01,08,11,22.00
2015,07,01,08,12,22.00
2015,07,01,08,13,22.10
2015,07,01,08,14,22.10
2015,07,01,08,15,22.10
2015,07,01,08,16,22.10
2015,07,01,08,17,22.20
2015,07,01,08,18,22.30
2015,07,01,08,19,22.40
2015,07,01,08,20,22.50
2015,07,01,08,21,22.60
2015,07,01,08,22,22.70
2015,07,01,08,23,22.80
2015,07,01,08,24,22.80
2015,07,01,08,25,22.80
2015,07,01,08,26,22.80
2015,07,01,08,27,22.80
2015,07,01,08,28,22.80
2015,07,01,08,29,22.80
2015,07,01,08,30,22.90
2015,07,01,08,31,22.90
2015,07,01,08,32,23.00
2015,07,01,08,33,23.00
2015,07,01,08,34,23.10
2015,07,01,08,35,23.10
2015,07,01,08,36,23.10
2015,07,01,08,37,23.00
2015,07,01,08,38,22.90
2015,07,01,08,39,22.80
2015,07,01,08,40,22.80
2015,07,01,08,41,22.80
2015,07,01,08,42,22.80
2015,07,01,08,43,22.80
2015,07,01,08,44,22.70
2015,07,01,08,45,22.80
2015,07,01,08,46,22.90
2015,07,01,08,47,22.90
2015,07,01,08,48,23.00
2015,07,01,08,49,23.10
2015,07,01,08,50,23.20
2015,07,01,08,51,23.30
2015,07,01,08,52,23.30
2015,07,01,08,53,23.40
2015,07,01,08,54,23.40
2015,07,01,08,55,23.40
2015,07,01,08,56,23.40
2015,07,01,08,57,23.40
2015,07,01,08,58,23.50
2015,07,01,08,59,23.60
2015,07,01,09,00,23.70
2015,07,01,09,01,23.80
2015,07,01,09,02,23.80
2015,07,01,09,03,23.90
2015,07,01,09,04,23.90
2015,07,01,09,05,23.90
2015,07,01,09,06,24.00
2015,07,01,09,07,24.00
2015,07,01,09,08,24.10
2015,07,01,09,09,24.10
2015,07,01,09,10,24.10
2015,07,01,09,11,24.10
2015,07,01,09,12,24.10
2015,07,01,09,13,24.20
2015,07,01,09,14,24.20
2015,07,01,09,15,24.20
2015,07,01,09,16,24.20
2015,07,01,09,17,24.30
2015,07,01,09,18,24.30
2015,07,01,09,19,24.40
2015,07,01,09,20,24.50
2015,07,01,09,21,24.50
2015,07,01,09,22,24.60
2015,07,01,09,23,24.60
2015,07,01,09,24,24.60
2015,07,01,09,25,24.60
2015,07,01,09,26,24.60
2015,07,01,09,27,24.60
2015,07,01,09,28,24.60
2015,07,01,09,29,24.60
2015,07,01,09,30,24.60
2015,07,01,09,31,24.60
2015,07,01,09,32,24.70
2015,07,01,09,33,24.70
2015,07,01,09,34,24.70
2015,07,01,09,35,24.70
2015,07,01,09,36,24.60
2015,07,01,09,37,24.60
2015,07,01,09,38,24.60
2015,07,01,09,39,24.60
2015,07,01,09,40,24.60
2015,07,01,09,41,24.60
2015,07,01,09,42,24.60
2015,07,01,09,43,24.60
2015,07,01,09,44,24.70
2015,07,01,09,45,24.80
2015,07,01,09,46,24.90
2015,07,01,09,47,24.90
2015,07,01,09,48,25.00
2015,07,01,09,49,25.10
2015,07,01,09,50,25.10
2015,07,01,09,51,25.10
2015,07,01,09,52,25.20
2015,07,01,09,53,25.20
2015,07,01,09,54,25.20
2015,07,01,09,55,25.40
2015,07,01,09,56,25.50
2015,07,01,09,57,25.70
2015,07,01,09,58,25.80
2015,07,01,09,59,25.80
2015,07,01,10,00,25.70
2015,07,01,10,01,25.70
2015,07,01,10,02,25.60
2015,07,01,10,03,25.60
2015,07,01,10,04,25.60
2015,07,01,10,05,25.60
2015,07,01,10,06,25.60
2015,07,01,10,07,25.60
2015,07,01,10,08,25.70
2015,07,01,10,09,25.80
2015,07,01,10,10,25.80
2015,07,01,10,11,25.80
2015,07,01,10,12,25.90
2015,07,01,10,13,25.90
2015,07,01,10,14,26.00
2015,07,01,10,15,26.00
2015,07,01,10,16,26.00
2015,07,01,10,17,25.90
2015,07,01,10,18,26.00
2015,07,01,10,19,26.00
2015,07,01,10,20,26.00
2015,07,01,10,21,26.10
2015,07,01,10,22,26.00
2015,07,01,10,23,26.00
2015,07,01,10,24,25.90
2015,07,01,10,25,25.80
2015,07,01,10,26,25.70
2015,07,01,10,27,25.60
2015,07,01,10,28,25.60
2015,07,01,10,29,25.60
2015,07,01,10,30,25.50
2015,07,01,10,31,25.60
2015,07,01,10,32,25.60
2015,07,01,10,33,25.70
2015,07,01,10,34,25.80
2015,07,01,10,35,25.90
2015,07,01,10,36,25.90
2015,07,01,10,37,25.90
2015,07,01,10,38,25.90
2015,07,01,10,39,25.90
2015,07,01,10,40,25.90
2015,07,01,10,41,25.90
2015,07,01,10,42,25.90
2015,07,01,10,43,26.10
2015,07,01,10,44,26.20
2015,07,01,10,45,26.20
2015,07,01,10,46,26.20
2015,07,01,10,47,26.20
2015,07,01,10,48,26.30
2015,07,01,10,49,26.30
2015,07,01,10,50,26.30
2015,07,01,10,51,26.30
2015,07,01,10,52,26.30
2015,07,01,10,53,26.20
2015,07,01,10,54,26.10
2015,07,01,10,55,26.10
2015,07,01,10,56,26.10
2015,07,01,10,57,26.10
2015,07,01,10,58,26.10
2015,07,01,10,59,26.10
2015,07,01,11,00,26.10
2015,07,01,11,01,26.20
2015,07,01,11,02,26.20
2015,07,01,11,03,26.20
2015,07,01,11,04,26.20
2015,07,01,11,05,26.20
2015,07,01,11,06,26.20
2015,07,01,11,07,26.30
2015,07,01,11,08,26.30
2015,07,01,11,09,26.20
2015,07,01,11,10,26.30
2015,07,01,11,11,26.40
2015,07,01,11,12,26.50
2015,07,01,11,13,26.50
2015,07,01,11,14,26.60
2015,07,01,11,15,26.60
2015,07,01,11,16,26.60
2015,07,01,11,17,26.70
2015,07,01,11,18,26.70
2015,07,01,11,19,26.90
2015,07,01,11,20,26.90
2015,07,01,11,21,27.00
2015,07,01,11,22,26.90
2015,07,01,11,23,26.90
2015,07,01,11,24,26.80
2015,07,01,11,25,26.80
2015,07,01,11,26,26.70
2015,07,01,11,27,26.70
2015,07,01,11,28,26.60
2015,07,01,11,29,26.50
2015,07,01,11,30,26.50
2015,07,01,11,31,26.50
2015,07,01,11,32,26.60
2015,07,01,11,33,26.50
2015,07,01,11,34,26.40
2015,07,01,11,35,26.20
2015,07,01,11,36,26.20
2015,07,01,11,37,26.20
2015,07,01,11,38,26.20
2015,07,01,11,39,26.30
2015,07,01,11,40,26.40
2015,07,01,11,41,26.40
2015,07,01,11,42,26.50
2015,07,01,11,43,26.50
2015,07,01,11,44,26.60
2015,07,01,11,45,26.70
2015,07,01,11,46,26.70
2015,07,01,11,47,26.70
2015,07,01,11,48,26.60
2015,07,01,11,49,26.60
2015,07,01,11,50,26.60
2015,07,01,11,51,26.60
2015,07,01,11,52,26.70
2015,07,01,11,53,26.80
2015,07,01,11,54,26.90
2015,07,01,11,55,26.90
2015,07,01,11,56,27.00
2015,07,01,11,57,27.10
2015,07,01,11,58,27.10
2015,07,01,11,59,27.10
2015,07,01,12,00,27.00
2015,07,01,12,01,26.90
2015,07,01,12,02,27.00
2015,07,01,12,03,27.10
2015,07,01,12,04,27.10
2015,07,01,12,05,27.10
2015,07,01,12,06,27.10
2015,07,01,12,07,27.20
2015,07,01,12,08,27.20
2015,07,01,12,09,27.30
2015,07,01,12,10,27.30
2015,07,01,12,11,27.40
2015,07,01,12,12,27.50
2015,07,01,12,13,27.60
2015,07,01,12,14,27.60
2015,07,01,12,15,27.60
2015,07,01,12,16,27.50
2015,07,01,12,17,27.50
2015,07,01,12,18,27.40
2015,07,01,12,19,27.40
2015,07,01,12,20,27.30
2015,07,01,12,21,27.30
2015,07,01,12,22,27.30
2015,07,01,12,23,27.30
2015,07,01,12,24,27.30
2015,07,01,12,25,27.30
2015,07,01,12,26,27.40
2015,07,01,12,27,27.40
2015,07,01,12,28,27.50
2015,07,01,12,29,27.40
2015,07,01,12,30,27.40
2015,07,01,12,31,27.40
2015,07,01,12,32,27.40
2015,07,01,12,33,27.40
2015,07,01,12,34,27.40
2015,07,01,12,35,27.50
2015,07,01,12,36,27.60
2015,07,01,12,37,27.70
2015,07,01,12,38,27.80
2015,07,01,12,39,27.90
2015,07,01,12,40,27.90
2015,07,01,12,41,28.00
2015,07,01,12,42,28.10
2015,07,01,12,43,28.20
2015,07,01,12,44,28.20
2015,07,01,12,45,28.30
2015,07,01,12,46,28.40
2015,07,01,12,47,28.50
2015,07,01,12,48,28.60
2015,07,01,12,49,28.60
2015,07,01,12,50,28.60
2015,07,01,12,51,28.70
2015,07,01,12,52,28.80
2015,07,01,12,53,28.80
2015,07,01,12,54,28.90
2015,07,01,12,55,28.70
2015,07,01,12,56,28.60
2015,07,01,12,57,28.50
2015,07,01,12,58,28.40
2015,07,01,12,59,28.50
2015,07,01,13,00,28.60
2015,07,01,13,01,28.70
2015,07,01,13,02,28.80
2015,07,01,13,03,28.80
2015,07,01,13,04,29.00
2015,07,01,13,05,29.10
2015,07,01,13,06,29.20
2015,07,01,13,07,29.30
2015,07,01,13,08,29.40
2015,07,01,13,09,29.50
2015,07,01,13,10,29.60
2015,07,01,13,11,29.60
2015,07,01,13,12,29.60
2015,07,01,13,13,29.60
2015,07,01,13,14,29.70
2015,07,01,13,15,29.70
2015,07,01,13,16,29.80
2015,07,01,13,17,29.80
2015,07,01,13,18,29.80
2015,07,01,13,19,29.70
2015,07,01,13,20,29.70
2015,07,01,13,21,29.60
2015,07,01,13,22,29.60
2015,07,01,13,23,29.50
2015,07,01,13,24,29.40
2015,07,01,13,25,29.20
2015,07,01,13,26,29.10
2015,07,01,13,27,29.00
2015,07,01,13,28,28.90
2015,07,01,13,29,28.90
2015,07,01,13,30,29.00
2015,07,01,13,31,29.10
2015,07,01,13,32,29.30
2015,07,01,13,33,29.40
2015,07,01,13,34,29.60
2015,07,01,13,35,29.80
2015,07,01,13,36,30.00
2015,07,01,13,37,30.10
2015,07,01,13,38,30.20
2015,07,01,13,39,30.40
2015,07,01,13,40,30.40
2015,07,01,13,41,30.50
2015,07,01,13,42,30.60
2015,07,01,13,43,30.70
2015,07,01,13,44,30.80
2015,07,01,13,45,30.90
2015,07,01,13,46,31.00
2015,07,01,13,47,31.10
2015,07,01,13,48,31.20
2015,07,01,13,49,31.40
2015,07,01,13,50,31.50
2015,07,01,13,51,31.70
2015,07,01,13,52,31.70
2015,07,01,13,53,31.80
2015,07,01,13,54,31.80
2015,07,01,13,55,31.80
2015,07,01,13,56,31.90
2015,07,01,13,57,31.90
2015,07,01,13,58,31.90
2015,07,01,13,59,31.90
2015,07,01,14,00,31.80
2015,07,01,14,01,31.60
2015,07,01,14,02,31.30
2015,07,01,14,03,30.90
2015,07,01,14,04,30.70
2015,07,01,14,05,30.40
2015,07,01,14,06,30.20
2015,07,01,14,07,30.10
2015,07,01,14,08,29.90
2015,07,01,14,09,29.70
2015,07,01,14,10,29.60
2015,07,01,14,11,29.60
2015,07,01,14,12,29.60
2015,07,01,14,13,29.50
2015,07,01,14,14,29.50
2015,07,01,14,15,29.40
2015,07,01,14,16,29.50
2015,07,01,14,17,29.50
2015,07,01,14,18,29.60
2015,07,01,14,19,29.50
2015,07,01,14,20,29.50
2015,07,01,14,21,29.40
2015,07,01,14,22,29.40
2015,07,01,14,23,29.50
2015,07,01,14,24,29.50
2015,07,01,14,25,29.60
2015,07,01,14,26,29.70
2015,07,01,14,27,29.80
2015,07,01,14,28,29.90
2015,07,01,14,29,30.10
2015,07,01,14,30,30.20
2015,07,01,14,31,30.20
2015,07,01,14,32,30.20
2015,07,01,14,33,30.10
2015,07,01,14,34,30.20
2015,07,01,14,35,30.30
2015,07,01,14,36,30.40
2015,07,01,14,37,30.60
2015,07,01,14,38,30.60
2015,07,01,14,39,30.60
2015,07,01,14,40,30.60
2015,07,01,14,41,30.80
2015,07,01,14,42,30.90
2015,07,01,14,43,30.80
2015,07,01,14,44,30.70
2015,07,01,14,45,30.60
2015,07,01,14,46,30.40
2015,07,01,14,47,30.20
2015,07,01,14,48,30.00
2015,07,01,14,49,30.00
2015,07,01,14,50,30.00
2015,07,01,14,51,30.20
2015,07,01,14,52,30.30
2015,07,01,14,53,30.40
2015,07,01,14,54,30.60
2015,07,01,14,55,30.60
2015,07,01,14,56,30.60
2015,07,01,14,57,30.40
2015,07,01,14,58,30.20
2015,07,01,14,59,30.20
2015,07,01,15,00,30.10
2015,07,01,15,01,30.00
2015,07,01,15,02,30.00
2015,07,01,15,03,29.90
2015,07,01,15,04,29.80
2015,07,01,15,05,29.70
2015,07,01,15,06,29.70
2015,07,01,15,07,29.70
2015,07,01,15,08,29.70
2015,07,01,15,09,29.70
2015,07,01,15,10,29.70
2015,07,01,15,11,29.70
2015,07,01,15,12,29.80
2015,07,01,15,13,29.80
2015,07,01,15,14,29.70
2015,07,01,15,15,29.70
2015,07,01,15,16,29.60
2015,07,01,15,17,29.60
2015,07,01,15,18,29.50
2015,07,01,15,19,29.40
2015,07,01,15,20,29.40
2015,07,01,15,21,29.40
2015,07,01,15,22,29.50
2015,07,01,15,23,29.50
2015,07,01,15,24,29.60
2015,07,01,15,25,29.50
2015,07,01,15,26,29.50
2015,07,01,15,27,29.40
2015,07,01,15,28,29.40
2015,07,01,15,29,29.30
2015,07,01,15,30,29.30
2015,07,01,15,31,29.20
2015,07,01,15,32,29.10
2015,07,01,15,33,29.10
2015,07,01,15,34,29.10
2015,07,01,15,35,29.20
2015,07,01,15,36,29.20
2015,07,01,15,37,29.10
2015,07,01,15,38,29.10
2015,07,01,15,39,29.00
2015,07,01,15,40,28.90
2015,07,01,15,41,28.90
2015,07,01,15,42,28.90
2015,07,01,15,43,29.00
2015,07,01,15,44,29.10
2015,07,01,15,45,29.10
2015,07,01,15,46,29.20
2015,07,01,15,47,29.30
2015,07,01,15,48,29.40
2015,07,01,15,49,29.50
2015,07,01,15,50,29.60
2015,07,01,15,51,29.60
2015,07,01,15,52,29.50
2015,07,01,15,53,29.30
2015,07,01,15,54,29.10
2015,07,01,15,55,28.90
2015,07,01,15,56,28.80
2015,07,01,15,57,28.80
2015,07,01,15,58,28.80
2015,07,01,15,59,28.80
2015,07,01,16,00,28.80
2015,07,01,16,01,28.80
2015,07,01,16,02,28.90
2015,07,01,16,03,29.00
2015,07,01,16,04,29.00
2015,07,01,16,05,29.00
2015,07,01,16,06,28.90
2015,07,01,16,07,28.80
2015,07,01,16,08,28.80
2015,07,01,16,09,28.80
2015,07,01,16,10,28.80
2015,07,01,16,11,28.90
2015,07,01,16,12,28.90
2015,07,01,16,13,28.90
2015,07,01,16,14,28.90
2015,07,01,16,15,28.90
2015,07,01,16,16,28.90
2015,07,01,16,17,28.90
2015,07,01,16,18,29.00
2015,07,01,16,19,29.10
2015,07,01,16,20,29.20
2015,07,01,16,21,29.30
2015,07,01,16,22,29.40
2015,07,01,16,23,29.40
2015,07,01,16,24,29.40
2015,07,01,16,25,29.40
2015,07,01,16,26,29.50
2015,07,01,16,27,29.50
2015,07,01,16,28,29.60
2015,07,01,16,29,29.70
2015,07,01,16,30,29.70
2015,07,01,16,31,29.70
2015,07,01,16,32,29.70
2015,07,01,16,33,29.70
2015,07,01,16,34,29.60
2015,07,01,16,35,29.40
2015,07,01,16,36,29.30
2015,07,01,16,37,29.30
2015,07,01,16,38,29.30
2015,07,01,16,39,29.30
2015,07,01,16,40,29.30
2015,07,01,16,41,29.40
2015,07,01,16,42,29.40
2015,07,01,16,43,29.40
2015,07,01,16,44,29.40
2015,07,01,16,45,29.40
2015,07,01,16,46,29.40
2015,07,01,16,47,29.40
2015,07,01,16,48,29.40
2015,07,01,16,49,29.40
2015,07,01,16,50,29.40
2015,07,01,16,51,29.40
2015,07,01,16,52,29.40
2015,07,01,16,53,29.40
2015,07,01,16,54,29.40
2015,07,01,16,55,29.30
2015,07,01,16,56,29.30
2015,07,01,16,57,29.30
2015,07,01,16,58,29.40
2015,07,01,16,59,29.40
2015,07,01,17,00,29.40
2015,07,01,17,01,29.30
2015,07,01,17,02,29.30
2015,07,01,17,03,29.10
2015,07,01,17,04,28.90
2015,07,01,17,05,28.80
2015,07,01,17,06,28.80
2015,07,01,17,07,28.70
2015,07,01,17,08,28.70
2015,07,01,17,09,28.70
2015,07,01,17,10,28.90
2015,07,01,17,11,29.00
2015,07,01,17,12,29.10
2015,07,01,17,13,29.20
2015,07,01,17,14,29.30
2015,07,01,17,15,29.40
2015,07,01,17,16,29.40
2015,07,01,17,17,29.40
2015,07,01,17,18,29.30
2015,07,01,17,19,29.10